SPAWAR-CAL-O (43766 NORAD) Tracking and Keplerian Element Data

This shows tracking and keplerian element data for the satellite.

Feedback or suggestion? Click here.




ElementValue
Catalog43766
NameSPAWAR-CAL-O
Epoch Orbit10306
Epoch Day297.70948697
Epoch Year2020
RAAN6.4352
Inclination97.6936
Eccentricity0.0012903
Argument of Perigee117.1173
Mean Anonmoly243.1361
Mean Motion14.9487423
Decay Rate-1.63E-06
L11 43766U 18099J 20297.70948697 -.00000163 00000-0 -97777-5 0 9997
L22 43766 97.6936 6.4352 0012903 117.1173 243.1361 14.94874230103066

Live tracking and technical data element details for SPAWAR-CAL-O (NORAD 43766). SPAWAR-CAL-O can be tracked NOW for your location showing map with azimuth and elevation plus other details from your city location.

Track the satellite on the map from your city or location and see movement details for azimuth, elevation, latitude, longitude, range, height, and movement on the map or in text.







IsCatalogInMostPopularTable: catalog: 43766, numindb: 142
Update: records affected: 1



GetName: 43766 SPAWAR-CAL-O

Hit Count: updated at: Sun, 25 Oct 2020 07:58:14 GMT